Home   Weather   China   Shanghai   Past weeks
Flag for China

Past Weather in Shanghai, Shanghai Municipality, China — Yesterday and Last 2 Weeks

Currently: 70 °F. Clear. (Weather station: Shanghai Hongqiao Airport, China). See more current weather

Past Weather in Shanghai — Graph

°F

Shanghai Temperature Yesterday

Maximum temperature yesterday: 75 °F (at 1:30 pm)
Minimum temperature yesterday: 59 °F (at 4:00 am)
Average temperature yesterday: 67 °F

High & Low Weather Summary for the Past Weeks

 TemperatureHumidityPressure
High93 °F (May 9, 2:30 pm)100% (May 4, 4:30 am)30.09 "Hg (May 4, 4:30 am)
Low59 °F (May 5, 4:30 am)21% (May 6, 10:30 am)29.53 "Hg (May 15, 3:30 pm)
Average74 °F72%29.79 "Hg
* Reported May 3 7:30 pm — May 18 7:00 pm, Shanghai. Weather by CustomWeather, © 2021

Note: Actual official high and low records may vary slightly from our data, if they occured in-between our weather recording intervals... More about our weather records

Shanghai Weather History for the Previous 24 Hours

Scroll right to see more
 ConditionsComfort  
Time TempWeatherWind HumidityBarometerVisibility
7:00 pm
Tue, May 18
70 °FClear.6 mph57%29.86 "Hg10 mi
6:30 pm70 °FSunny.8 mph57%29.86 "Hg10 mi
6:00 pm70 °FSunny.10 mph57%29.86 "Hg10 mi
5:30 pm72 °FSunny.10 mph57%29.86 "Hg10 mi
4:30 pm73 °FPassing clouds.6 mph57%29.86 "HgN/A
4:00 pm73 °FPassing clouds.6 mph53%29.86 "HgN/A
3:30 pm73 °FPassing clouds.3 mph44%29.86 "HgN/A
2:30 pm73 °FSunny.6 mph47%29.89 "Hg10 mi
2:00 pm73 °FPassing clouds.6 mph47%29.86 "HgN/A
1:30 pm73 °FPassing clouds.6 mph50%29.86 "HgN/A
1:00 pm73 °FSunny.3 mph50%29.89 "Hg10 mi
12:30 pm75 °FPassing clouds.6 mph54%29.86 "HgN/A
12:00 pm73 °FPassing clouds.3 mph47%29.89 "HgN/A
11:30 am73 °FPassing clouds.3 mph47%29.89 "HgN/A
11:00 am73 °FSunny.1 mph44%29.89 "Hg10 mi
10:30 am73 °FSunny.1 mph44%29.92 "Hg10 mi
10:00 am72 °FSunny.1 mph47%29.92 "Hg10 mi
9:30 am72 °FSunny.1 mph47%29.92 "Hg10 mi
9:00 am72 °FSunny.1 mph47%29.95 "Hg10 mi
8:30 am70 °FSunny.1 mph53%29.95 "Hg10 mi
7:30 am68 °FSunny.1 mph69%29.92 "Hg10 mi
7:00 am68 °FSunny.No wind69%29.92 "Hg10 mi
6:30 am66 °FSunny.1 mph73%29.92 "Hg10 mi
6:00 am66 °FSunny.1 mph73%29.92 "Hg10 mi
5:30 am64 °FSunny.1 mph78%29.92 "Hg10 mi
5:00 am64 °FSunny.1 mph78%29.89 "Hg10 mi
4:30 am64 °FClear.3 mph83%29.89 "Hg10 mi
4:00 am64 °FClear.3 mph83%29.89 "Hg10 mi
3:30 am64 °FClear.3 mph88%29.89 "Hg10 mi
2:30 am64 °FClear.3 mph88%29.89 "Hg10 mi
2:00 am64 °FSprinkles. Clear.6 mph94%29.89 "HgN/A
1:30 am66 °FSprinkles. Clear.3 mph83%29.89 "HgN/A
1:00 am66 °FClear.1 mph78%29.92 "Hg10 mi
12:30 am66 °FClear.3 mph78%29.92 "Hg10 mi
12:00 am66 °FClear.3 mph73%29.92 "Hg10 mi
11:30 pm
Mon, May 17
68 °FClear.3 mph73%29.92 "Hg10 mi
11:00 pm68 °FPassing clouds.3 mph73%29.92 "HgN/A
10:30 pm68 °FPassing clouds.6 mph73%29.92 "HgN/A
10:00 pm68 °FPassing clouds.6 mph73%29.92 "HgN/A
9:30 pm68 °FClear.8 mph73%29.92 "Hg10 mi
9:00 pm70 °FPassing clouds.6 mph64%29.92 "HgN/A
8:30 pm70 °FClear.6 mph64%29.92 "Hg10 mi
8:00 pm70 °FClear.8 mph60%29.89 "Hg10 mi
Weather by CustomWeather, © 2021

See weather overview